DW9792 Weather Reports


time (UTC)temp
F
wind
direction
speed
knots
gust
knots
rain 1hr
in
rain 24hr
in
rain mn
in
humidity
%
barometer
mb
20260506073015 56 178 0.0 1.7 0.00 0.00 0.00 92 1016.4
20260506071515 56 178 0.0 1.7 0.00 0.00 0.00 92 1016.5
20260506061516 57 178 0.0 0.0 0.00 0.00 0.00 91 1016.7
20260506044526 60 178 0.0 1.7 0.00 0.00 0.00 87 1017.8
20260506043019 61 166 0.0 1.7 0.00 0.00 0.00 86 1017.9
20260506041514 61 246 0.0 2.6 0.00 0.00 0.00 1017.9
20260506040033 62 124 0.0 1.7 0.00 0.00 0.00 84 1018.0
20260506034524 62 164 0.0 1.7 0.00 0.00 0.00 83 1018.1
20260506033026 63 198 0.0 1.7 0.00 0.00 0.00 82 1018.1
20260506031524 63 81 0.0 1.7 0.00 0.00 0.00 80 1018.1
20260506030021 64 96 0.0 1.7 0.00 0.00 0.00 79 1018.3
20260506024528 64 215 0.0 2.6 0.00 0.00 0.00 78 1018.3
20260506023026 65 136 0.0 1.7 0.00 0.00 0.00 76 1018.3
20260506021541 65 121 0.9 1.7 0.00 0.00 0.00 75 1018.3
20260506020024 65 186 0.9 2.6 0.00 0.00 0.00 74 1018.2
20260506014525 65 132 0.0 3.5 0.00 0.00 0.00 74 1018.0
20260506013024 66 189 0.0 2.6 0.00 0.00 0.00 72 1018.1
20260506011527 66 163 0.0 3.5 0.00 0.00 0.00 71 1017.9
20260506010036 66 237 0.0 4.3 0.00 0.00 0.00 70 1017.8
20260506004526 67 109 0.9 3.5 0.00 0.00 0.00 68 1017.7
20260506003023 68 193 1.7 6.1 0.00 0.00 0.00 67 1017.7
20260506001507 68 98 0.9 7.8 0.00 0.00 0.00 65 1017.8
20260506000011 69 198 1.7 8.7 0.00 0.00 0.00 64 1017.7
20260505234518 69 202 2.6 7.0 0.00 0.00 0.00 63 1017.6
20260505233022 70 298 0.9 7.8 0.00 0.00 0.00 61 1017.6
20260505231504 71 198 1.7 7.8 0.00 0.00 0.00 59 1017.6
20260505230009 71 234 3.5 12.2 0.00 0.00 0.00 57 1017.6
20260505224524 72 104 3.5 13.9 0.00 0.00 0.00 56 1017.6
20260505223019 73 241 4.3 12.2 0.00 0.00 0.00 57 1017.7
20260505221524 73 273 4.3 8.7 0.00 0.00 0.00 56 1017.6
20260505220008 73 202 5.2 12.2 0.00 0.00 0.00 56 1017.6
20260505214515 73 244 4.3 11.3 0.00 0.00 0.00 56 1017.6
20260505213019 74 161 2.6 9.6 0.00 0.00 0.00 56 1017.4
20260505211535 74 182 4.3 10.4 0.00 0.00 0.00 56 1017.4
20260505210024 74 251 3.5 12.2 0.00 0.00 0.00 57 1017.5
20260505204511 74 309 3.5 10.4 0.00 0.00 0.00 57 1017.4
20260505203015 75 234 4.3 13.0 0.00 0.00 0.00 55 1017.4
20260505201523 76 161 4.3 12.2 0.00 0.00 0.00 53 1017.6
20260505200025 76 210 3.5 12.2 0.00 0.00 0.00 53 1017.8
20260505194526 76 242 6.1 13.9 0.00 0.00 0.00 53 1018.2
20260505193014 77 72 2.6 10.4 0.00 0.00 0.00 50 1018.2
20260505191520 77 217 6.1 12.2 0.00 0.00 0.00 50 1018.4
20260505190023 77 244 3.5 14.8 0.00 0.00 0.00 52 1018.5
20260505184534 77 148 2.6 12.2 0.00 0.00 0.00 50 1018.4
20260505183037 77 180 3.5 10.4 0.00 0.00 0.00 52 1018.5
20260505181521 77 126 4.3 11.3 0.00 0.00 0.00 48 1018.6
20260505180023 78 192 2.6 9.6 0.00 0.00 0.00 48 1018.3
20260505174528 78 271 3.5 12.2 0.00 0.00 0.00 49 1018.4
20260505173027 78 263 2.6 10.4 0.00 0.00 0.00 50 1018.3
20260505171517 78 250 1.7 8.7 0.00 0.00 0.00 50 1018.3
20260505170033 78 98 2.6 7.0 0.00 0.00 0.00 50 1018.5
20260505164525 77 232 1.7 9.6 0.00 0.00 0.00 49 1018.7
20260505163028 77 185 4.3 13.0 0.00 0.00 0.00 51 1018.8
20260505161527 76 185 1.7 9.6 0.00 0.00 0.00 51 1018.9
20260505153026 75 243 5.2 10.4 0.00 0.00 0.00 53 1018.9
20260505151517 75 227 0.9 9.6 0.00 0.00 0.00 53 1019.2
20260505124522 67 206 0.9 5.2 0.00 0.00 0.00 68 1019.5
20260505123025 66 106 1.7 4.3 0.00 0.00 0.00 73 1019.4
20260505121526 64 201 0.9 4.3 0.00 0.00 0.00 76 1019.3
20260505120016 61 352 0.0 2.6 0.00 0.00 0.00 85 1019.3
20260505114519 58 283 0.0 1.7 0.00 0.00 0.00 93 1019.1
20260505113031 56 154 0.0 1.7 0.00 0.00 0.00 93 1018.9
20260505111538 54 154 0.0 0.0 0.00 0.00 0.00 93 1018.9
20260505101533 53 195 0.0 1.7 0.00 0.00 0.00 92 1018.2
20260505100028 53 195 0.0 0.0 0.00 0.00 0.00 92 1018.1
20260505094529 53 195 0.0 0.0 0.00 0.00 0.00 91 1017.8
20260505093020 54 195 0.0 0.0 0.00 0.00 0.00 91 1017.8
20260505091525 54 195 0.0 0.0 0.00 0.00 0.00 91 1017.7
20260505090030 54 195 0.0 0.0 0.00 0.00 0.00 91 1017.7
20260505084530 54 195 0.0 0.0 0.00 0.00 0.00 90 1017.5
20260505083029 55 195 0.0 0.0 0.00 0.00 0.00 89 1017.5
20260505081521 55 195 0.0 0.0 0.00 0.00 0.00 89 1017.5